sat.trackr.live / text

‹ back to catalog

STARLINK-5802

NORAD 56552 · 2023-065BB

PAYLOAD ACTIVE UNKNOWN

§ Identity

Operator
Country
US
Launch date
2023-05-14
Launch site
AFETR
Launch vehicle
Mass (kg)
RCS (m²)

Purposes: comms

External: N2YO · Heavens-Above · Gunter

§ Orbital elements

Epoch: 2026-05-25T02:00:52.602624Z

Period
94.27 min
Inclination
43.0025°
Eccentricity
0.0002080
Mean motion
15.27562321 rev/d
Perigee alt
481.7 km
Apogee alt
484.5 km
Semi-major
6,861.2 km
B*
1.9266e-4
RAAN
152.3152°
Arg perigee
280.1772°
Mean anomaly
79.8845°
Rev number
16,815

§ Raw data

STARLINK-58021 56552U 23065BB  26145.08394216  .00005040  00000+0  19266-3 0  99952 56552  43.0025 152.3152 0002080 280.1772  79.8845 15.27562321168151

JSON: /api/v1/satellites/56552 · /tle

For live sub-satellite position, see the globe view (requires WebGL).

§ Visibility from observer

Set your observer location to see the next 7 days of passes ≥ 10°. The values pass through the URL so the page stays shareable.

No JS? Fill the form by hand. The geolocation button needs JavaScript.